Weather History for Bangor, ME

Change the Weather History Date:

Sunday, January 20, 2013

  Actual Average Record
Temperature  
Mean Temperature 32 °F 16 °F  
Max Temperature 44 °F 27 °F 54 °F (1996)
Min Temperature 19 °F 6 °F -25 °F (1971)
Degree Days  
Heating Degree Days 33 49  
Month to date heating degree days 879 957  
Since 1 July heating degree days 3673 3878  
Cooling Degree Days 0 0  
Month to date cooling degree days 0 0  
Year to date cooling degree days 0 0  
Moisture  
Dew Point 25 °F    
Average Humidity 70    
Maximum Humidity 100    
Minimum Humidity 39    
Precipitation  
Precipitation 0.02 in 0.09 in 0.99 in (1947)
Month to date precipitation 0.33 1.87  
Year to date precipitation 0.33 1.87  
Snow  
Snow T in 0.60 in 8.00 in (2010)
Month to date snowfall 4.0 12.5  
Since 1 July snowfall 25.6 29.3  
Snow Depth 4.00 in    
Sea Level Pressure  
Sea Level Pressure 29.62 in    
Wind  
Wind Speed 6 mph (SW)    
Max Wind Speed 26 mph    
Max Gust Speed 40 mph    
Visibility 9 miles    
Events Rain , Snow    
T = Trace of Precipitation, MM = Missing Value Source: NWS Daily Summary

Daily Weather History Graph

Daily Weather History Graph

Search for Another Location

Airport:

Trip Planner

Search our weather history database for the weather conditions in past years. The results will help you decide how hot, cold, wet, or windy it might be!

Date:

Astronomy

Jan. 20, 2013 Rise Set
Actual Time 7:05 AM EST 4:27 PM EST
Civil Twilight 6:33 AM EST 4:59 PM EST
Nautical Twilight 5:57 AM EST 5:35 PM EST
Astronomical Twilight 5:23 AM EST 6:10 PM EST
Moon 11:27 AM EST (1/20) 1:33 AM EST (1/20)
Length of Visible Light 10h 25m
Length of Day
9h 21m
Waxing Gibbous, 66% of the Moon is Illuminated
Jan 20
Waxing Gibbous
Jan 26
Full
Feb 3
Last Quarter
Feb 10
New
Feb 17
First Quarter

Hourly Weather History & Observations

Time (EST) Temp. Windchill Dew Point Humidity Pressure Visibility Wind Dir Wind Speed Gust Speed Precip Events Conditions
12:30 AM 26.6 °F 21.2 °F 24.8 °F 93% 29.87 in 7.0 mi North 4.6 mph - 0.00 in   Overcast
12:53 AM 27.0 °F - 25.0 °F 92% 29.87 in 7.0 mi Calm Calm - 0.00 in Snow Light Snow
1:53 AM 28.0 °F - 26.1 °F 92% 29.85 in 7.0 mi Calm Calm - 0.00 in Snow Light Snow
2:53 AM 32.0 °F 26.4 °F 27.0 °F 82% 29.82 in 9.0 mi ESE 5.8 mph - 0.00 in Snow Light Snow
3:53 AM 33.1 °F 30.0 °F 28.0 °F 82% 29.75 in 10.0 mi East 3.5 mph - 0.00 in   Overcast
4:01 AM 33.8 °F - 28.4 °F 81% 29.75 in 10.0 mi Calm Calm - N/A   Overcast
4:25 AM 32.0 °F - 28.4 °F 87% 29.74 in 10.0 mi Calm Calm - N/A   Overcast
4:53 AM 30.9 °F - 28.0 °F 89% 29.73 in 10.0 mi Calm Calm - N/A   Overcast
5:53 AM 32.0 °F - 30.9 °F 96% 29.68 in 9.0 mi Calm Calm - 0.02 in Rain Light Rain
6:53 AM 33.1 °F 30.0 °F 33.1 °F 100% 29.62 in 7.0 mi SE 3.5 mph - 0.00 in   Mostly Cloudy
7:53 AM 34.0 °F 28.0 °F 34.0 °F 100% 29.56 in 7.0 mi SE 6.9 mph - N/A   Mostly Cloudy
8:53 AM 37.9 °F 31.5 °F 35.1 °F 89% 29.52 in 9.0 mi South 9.2 mph - N/A   Scattered Clouds
9:53 AM 41.0 °F 35.2 °F 36.0 °F 82% 29.48 in 10.0 mi SW 9.2 mph - N/A   Scattered Clouds
10:03 AM 42.8 °F 38.6 °F 35.6 °F 76% 29.47 in 10.0 mi SSW 6.9 mph - N/A   Mostly Cloudy
10:38 AM 42.8 °F 35.8 °F 33.8 °F 70% 29.44 in 10.0 mi SSW 13.8 mph 25.3 mph N/A   Mostly Cloudy
10:53 AM 43.0 °F 36.0 °F 34.0 °F 71% 29.43 in 10.0 mi SSW 13.8 mph 24.2 mph N/A   Clear
11:53 AM 44.1 °F 37.7 °F 30.9 °F 60% 29.39 in 10.0 mi SSW 12.7 mph 23.0 mph N/A   Mostly Cloudy
12:53 PM 44.1 °F 37.1 °F 28.0 °F 53% 29.40 in 10.0 mi SW 15.0 mph 28.8 mph N/A   Mostly Cloudy
1:53 PM 41.0 °F 36.4 °F 28.0 °F 60% 29.42 in 10.0 mi WSW 6.9 mph 18.4 mph N/A   Mostly Cloudy
2:53 PM 41.0 °F 34.3 °F 28.0 °F 60% 29.44 in 10.0 mi SW 11.5 mph 18.4 mph N/A   Mostly Cloudy
3:53 PM 39.0 °F 31.8 °F 28.0 °F 65% 29.47 in 10.0 mi WSW 11.5 mph 19.6 mph N/A   Mostly Cloudy
4:53 PM 37.9 °F 30.9 °F 21.9 °F 53% 29.50 in 10.0 mi WSW 10.4 mph 20.7 mph N/A   Mostly Cloudy
5:53 PM 37.0 °F 31.6 °F 15.1 °F 41% 29.54 in 10.0 mi West 6.9 mph 18.4 mph N/A   Scattered Clouds
6:53 PM 35.1 °F 27.9 °F 16.0 °F 46% 29.59 in 10.0 mi West 9.2 mph 17.3 mph N/A   Scattered Clouds
7:53 PM 32.0 °F 22.5 °F 16.0 °F 52% 29.63 in 10.0 mi West 12.7 mph 21.9 mph N/A   Clear
8:53 PM 28.9 °F 17.7 °F 15.1 °F 56% 29.68 in 10.0 mi WNW 15.0 mph 28.8 mph N/A   Mostly Cloudy
9:53 PM 25.0 °F 13.1 °F 3.9 °F 41% 29.73 in 10.0 mi West 13.8 mph 33.4 mph N/A   Partly Cloudy
10:53 PM 21.0 °F 7.1 °F -0.0 °F 40% 29.78 in 10.0 mi WNW 16.1 mph 28.8 mph N/A   Clear
11:53 PM 19.0 °F 5.6 °F -0.9 °F 42% 29.80 in 10.0 mi West 13.8 mph 25.3 mph N/A   Clear